Location: Alladorf
(49.9620°N, 11.3790°E)
Time: 20:34:29
(UTC+00:00)

MOS 1-B - Pass Details

Date: 29 November 2020
Orbit: 905 x 914 km, 99.4° (Epoch: 25 January)

Event Time Altitude Azimuth Distance (km) Brightness Sun altitude
Rises 05:58:31 0° 13° (NNE) 3,563 7.3 -7.9°
Reaches altitude 10° 06:00:57 10° 10° (N) 2,617 6.6 -7.5°
Maximum altitude 06:06:42 61° 292° (WNW) 1,036 4.4 -6.7°
Drops below altitude 10° 06:12:23 10° 214° (SW) 2,597 6.7 -5.9°
Sets 06:14:48 0° 211° (SSW) 3,534 7.4 -5.5°
